{"data":{"norad_id":51973,"epoch":"2026-09-20T03:07:01.848864Z","epoch_age_seconds":88020,"freshness":"FRESH","line1":"1 51973U 22025T   26263.12988251 -.00000985  00000+0 -19974-4 0  9998","line2":"2 51973  53.1600 212.0720 0001337 108.2604 251.8543 15.31704555250620","mean_motion":15.31704555,"eccentricity":0.0001337,"inclination_deg":53.16,"raan_deg":212.072,"arg_perigee_deg":108.2604,"mean_anomaly_deg":251.8543,"bstar":-1.9974e-5,"rev_number":25062,"period_min":94.012908383628,"perigee_km":469.81072400246,"apogee_km":471.64211008018,"semimajor_km":6848.8634170413,"source":"CELESTRAK","updated_at":"2026-09-20T09:00:39.978262Z"}}